Morrisville, VT

12:31 PM EDT on April 23, 2018 (GMT -0400)
Morrisville Stowe State

Weather History for KMVL - October, 2013

Change the Weather History Date:

Sunday, October 6, 2013

  Actual Average Record
Temperature  
Mean Temperature 51 °F 49 °F  
Max Temperature 57 °F 61 °F 80 °F (2005)
Min Temperature 44 °F 38 °F 24 °F (1996)
Degree Days  
Heating Degree Days 14 16  
Month to date heating degree days 51 89  
Since 1 July heating degree days 365 421  
Cooling Degree Days 0 0  
Month to date cooling degree days 0 0  
Year to date cooling degree days 401 265  
Growing Degree Days 1 (Base 50)    
Moisture  
Dew Point 44 °F    
Average Humidity 75    
Maximum Humidity 93    
Minimum Humidity 57    
Precipitation  
Precipitation 0.17 in 0.11 in 0.45 in (2007)
Month to date precipitation 0.18 0.68  
Year to date precipitation 33.22 27.81  
Sea Level Pressure  
Sea Level Pressure 30.17 in    
Wind  
Wind Speed 4 mph (SSW)    
Max Wind Speed 12 mph    
Max Gust Speed 15 mph    
Visibility 10 miles    
Events Rain    
T = Trace of Precipitation, MM = Missing Value Source: NWS Daily Summary

Daily Weather History Graph

Daily Weather History Graph

Search for Another Location

Airport or City:

Astronomy

Oct. 06, 2013 Rise Set
Actual Time 6:54 AM EDT 6:21 PM EDT
Civil Twilight 6:25 AM EDT 6:50 PM EDT
Nautical Twilight 5:51 AM EDT 7:24 PM EDT
Astronomical Twilight 5:17 AM EDT 7:58 PM EDT
Moon 8:41 AM EDT (10/6) 7:12 PM EDT (10/6)
Length of Visible Light 12h 25m
Length of Day
11h 26m
Waxing Crescent, 3% of the Moon is Illuminated
Oct 6
Waxing Crescent
Oct 11
First Quarter
Oct 18
Full
Oct 26
Last Quarter
Nov 3
New

Hourly Weather History & Observations

Time (EDT) Temp. Dew Point Humidity Pressure Visibility Wind Dir Wind Speed Gust Speed Precip Events Conditions
12:54 AM 46.9 °F 42.1 °F 83% 30.20 in 10.0 mi Calm Calm - N/A   Partly Cloudy
1:54 AM 46.9 °F 43.0 °F 86% 30.21 in 10.0 mi Calm Calm - N/A   Mostly Cloudy
2:54 AM 46.9 °F 43.0 °F 86% 30.19 in 10.0 mi Calm Calm - N/A   Mostly Cloudy
3:54 AM 45.0 °F 39.9 °F 82% 30.18 in 10.0 mi Calm Calm - N/A   Partly Cloudy
4:54 AM 45.0 °F 39.9 °F 82% 30.20 in 10.0 mi Calm Calm - N/A   Partly Cloudy
5:54 AM 46.0 °F 41.0 °F 83% 30.19 in 10.0 mi Calm Calm - N/A   Overcast
6:54 AM 46.9 °F 42.1 °F 83% 30.20 in 10.0 mi Calm Calm - N/A   Overcast
7:54 AM 48.0 °F 41.0 °F 77% 30.21 in 10.0 mi Calm Calm - N/A   Overcast
8:54 AM 50.0 °F 42.1 °F 74% 30.21 in 10.0 mi Calm Calm - N/A   Overcast
9:54 AM 52.0 °F 39.9 °F 63% 30.20 in 10.0 mi Calm Calm - N/A   Overcast
10:54 AM 55.0 °F 43.0 °F 64% 30.19 in 10.0 mi Calm Calm - N/A   Overcast
11:54 AM 57.0 °F 43.0 °F 59% 30.19 in 10.0 mi SW 3.5 mph - N/A   Overcast
12:54 PM 55.9 °F 44.1 °F 64% 30.17 in 10.0 mi Variable 5.8 mph - N/A   Overcast
1:45 PM 55.4 °F 44.6 °F 67% 30.14 in 10.0 mi South 5.8 mph - 0.00 in Rain Light Rain
1:54 PM 55.0 °F 45.0 °F 69% 30.16 in 10.0 mi South 3.5 mph - 0.00 in   Overcast
2:54 PM 54.0 °F 43.0 °F 66% 30.16 in 10.0 mi South 8.1 mph - N/A   Overcast
3:54 PM 51.1 °F 46.0 °F 83% 30.16 in 10.0 mi South 9.2 mph - 0.01 in Rain Light Rain
4:54 PM 48.9 °F 46.0 °F 90% 30.15 in 4.0 mi SE 3.5 mph - 0.05 in Rain Rain
5:54 PM 50.0 °F 46.9 °F 89% 30.14 in 4.0 mi SSW 6.9 mph - 0.07 in Rain Light Rain
6:54 PM 50.0 °F 46.9 °F 89% 30.14 in 10.0 mi SSW 6.9 mph - 0.03 in Rain Light Rain
7:54 PM 51.1 °F 46.9 °F 86% 30.14 in 10.0 mi SSW 6.9 mph - 0.00 in Rain Light Rain
8:54 PM 50.0 °F 48.0 °F 93% 30.13 in 10.0 mi Calm Calm - 0.01 in   Overcast
9:54 PM 51.1 °F 48.0 °F 89% 30.12 in 10.0 mi SSW 4.6 mph - N/A   Overcast
10:54 PM 52.0 °F 48.0 °F 86% 30.10 in 10.0 mi SSW 9.2 mph - N/A   Overcast
11:54 PM 53.1 °F 48.0 °F 83% 30.08 in 10.0 mi South 6.9 mph - N/A   Overcast